| time (UTC) | temp F | wind direction | speed MPH | gust MPH | rain 1hr in | rain 24hr in | rain mn in | humidity % | barometer mb |
| 20260507214025 | 53 | 339 | 2.0 | 3.0 | 0.00 | 0.48 | 0.48 | 99 | 1012.2 |
| 20260507213522 | 53 | 191 | 0.0 | 0.0 | 0.00 | 0.48 | 0.48 | 99 | 1012.2 |
| 20260507213019 | 53 | 2 | 4.0 | 5.0 | 0.00 | 0.48 | 0.48 | 99 | 1012.5 |
| 20260507212515 | 53 | 337 | 1.0 | 2.0 | 0.00 | 0.48 | 0.48 | 99 | 1012.5 |
| 20260507212012 | 53 | 345 | 1.0 | 5.0 | 0.00 | 0.48 | 0.48 | 99 | 1012.5 |
| 20260507211508 | 53 | 354 | 3.0 | 5.0 | 0.00 | 0.48 | 0.48 | 99 | 1012.9 |
| 20260507211005 | 53 | 358 | 2.0 | 8.0 | 0.00 | 0.48 | 0.48 | 99 | 1012.9 |
| 20260507210502 | 53 | 349 | 6.0 | 8.0 | 0.00 | 0.48 | 0.48 | 99 | 1012.5 |
| 20260507205958 | 53 | 344 | 4.0 | 7.0 | 0.00 | 0.48 | 0.48 | 99 | 1012.5 |
| 20260507205455 | 53 | 7 | 9.0 | 9.0 | 0.00 | 0.48 | 0.48 | 99 | 1012.2 |
| 20260507204952 | 54 | 0 | 8.0 | 10.0 | 0.00 | 0.48 | 0.48 | 99 | 1012.2 |
| 20260507204448 | 54 | 356 | 6.0 | 8.0 | 0.05 | 0.48 | 0.48 | 99 | 1012.9 |
| 20260507203946 | 54 | 109 | 3.0 | 8.0 | 0.05 | 0.48 | 0.48 | 99 | 1012.5 |
| 20260507203444 | 54 | 359 | 7.0 | 9.0 | 0.00 | 0.47 | 0.47 | 99 | 1012.9 |
| 20260507202940 | 54 | 346 | 3.0 | 6.0 | 0.00 | 0.47 | 0.47 | 99 | 1012.5 |
| 20260507202436 | 54 | 1 | 2.0 | 6.0 | 0.00 | 0.47 | 0.47 | 99 | 1012.5 |
| 20260507201932 | 54 | 15 | 4.0 | 6.0 | 0.00 | 0.47 | 0.47 | 99 | 1012.2 |
| 20260507201433 | 54 | 6 | 8.0 | 9.0 | 0.00 | 0.47 | 0.47 | 99 | 1012.2 |
| 20260507200930 | 54 | 353 | 7.0 | 10.0 | 0.00 | 0.47 | 0.47 | 99 | 1012.2 |
| 20260507200425 | 54 | 3 | 7.0 | 9.0 | 0.00 | 0.47 | 0.47 | 99 | 1012.5 |
| 20260507195921 | 54 | 11 | 2.0 | 5.0 | 0.00 | 0.47 | 0.47 | 99 | 1012.2 |
| 20260507195419 | 54 | 31 | 2.0 | 8.0 | 0.00 | 0.47 | 0.47 | 98 | 1012.2 |
| 20260507194916 | 54 | 346 | 3.0 | 8.0 | 0.00 | 0.47 | 0.47 | 98 | 1012.2 |
| 20260507194413 | 54 | 350 | 3.0 | 7.0 | 0.00 | 0.47 | 0.47 | 98 | 1012.2 |
| 20260507193909 | 54 | 27 | 3.0 | 6.0 | 0.00 | 0.47 | 0.47 | 98 | 1012.2 |
| 20260507193406 | 54 | 0 | 4.0 | 6.0 | 0.00 | 0.47 | 0.47 | 98 | 1012.2 |
| 20260507192902 | 54 | 345 | 2.0 | 3.0 | 0.00 | 0.47 | 0.47 | 98 | 1012.2 |
| 20260507192359 | 54 | 350 | 4.0 | 5.0 | 0.00 | 0.47 | 0.47 | 98 | 1012.2 |
| 20260507191855 | 54 | 355 | 3.0 | 6.0 | 0.00 | 0.47 | 0.47 | 98 | 1012.2 |
| 20260507191352 | 54 | 343 | 3.0 | 5.0 | 0.00 | 0.47 | 0.47 | 98 | 1012.2 |
| 20260507190848 | 54 | 12 | 3.0 | 6.0 | 0.00 | 0.47 | 0.47 | 98 | 1012.2 |
| 20260507190347 | 54 | 356 | 3.0 | 6.0 | 0.00 | 0.47 | 0.47 | 98 | 1011.8 |
| 20260507185845 | 54 | 344 | 5.0 | 9.0 | 0.00 | 0.47 | 0.47 | 98 | 1011.8 |
| 20260507185342 | 54 | 18 | 5.0 | 7.0 | 0.00 | 0.47 | 0.47 | 98 | 1011.8 |
| 20260507184839 | 54 | 70 | 5.0 | 9.0 | 0.00 | 0.47 | 0.47 | 98 | 1012.2 |
| 20260507184337 | 54 | 293 | 2.0 | 7.0 | 0.00 | 0.47 | 0.47 | 98 | 1011.8 |
| 20260507183833 | 54 | 322 | 4.0 | 5.0 | 0.00 | 0.47 | 0.47 | 98 | 1011.8 |
| 20260507183331 | 54 | 335 | 5.0 | 7.0 | 0.00 | 0.47 | 0.47 | 98 | 1011.8 |
| 20260507182828 | 53 | 47 | 4.0 | 8.0 | 0.07 | 0.47 | 0.47 | 98 | 1012.2 |
| 20260507182324 | 54 | 18 | 6.0 | 9.0 | 0.00 | 0.46 | 0.46 | 98 | 1012.2 |
| 20260507181820 | 54 | 348 | 5.0 | 10.0 | 0.00 | 0.46 | 0.46 | 98 | 1012.9 |
| 20260507181316 | 55 | 28 | 5.0 | 7.0 | 0.00 | 0.46 | 0.46 | 98 | 1012.9 |
| 20260507180813 | 55 | 83 | 1.0 | 3.0 | 0.00 | 0.46 | 0.46 | 98 | 1012.9 |
| 20260507180310 | 55 | 328 | 3.0 | 6.0 | 0.00 | 0.46 | 0.46 | 98 | 1012.5 |
| 20260507175805 | 55 | 355 | 3.0 | 8.0 | 0.00 | 0.46 | 0.46 | 98 | 1012.5 |
| 20260507175306 | 55 | 336 | 3.0 | 6.0 | 0.00 | 0.46 | 0.46 | 98 | 1012.2 |
| 20260507174800 | 55 | 29 | 2.0 | 7.0 | 0.00 | 0.46 | 0.46 | 98 | 1012.2 |
| 20260507174258 | 55 | 11 | 3.0 | 7.0 | 0.00 | 0.46 | 0.46 | 98 | 1012.2 |
| 20260507173755 | 55 | 338 | 4.0 | 6.0 | 0.00 | 0.46 | 0.46 | 98 | 1012.2 |
| 20260507173252 | 55 | 187 | 0.0 | 3.0 | 0.00 | 0.46 | 0.46 | 98 | 1012.5 |
| 20260507172748 | 55 | 284 | 4.0 | 8.0 | 0.00 | 0.46 | 0.46 | 98 | 1012.5 |
| 20260507172245 | 55 | 155 | 0.0 | 10.0 | 0.00 | 0.46 | 0.46 | 98 | 1012.2 |
| 20260507171741 | 55 | 330 | 5.0 | 6.0 | 0.00 | 0.46 | 0.46 | 99 | 1012.2 |
| 20260507171238 | 55 | 18 | 2.0 | 8.0 | 0.05 | 0.46 | 0.46 | 99 | 1012.2 |
| 20260507170735 | 55 | 301 | 1.0 | 8.0 | 0.05 | 0.46 | 0.46 | 99 | 1012.2 |
| 20260507170231 | 55 | 29 | 1.0 | 6.0 | 0.00 | 0.45 | 0.45 | 99 | 1012.9 |
| 20260507165727 | 55 | 25 | 2.0 | 11.0 | 0.00 | 0.45 | 0.45 | 99 | 1012.5 |
| 20260507165224 | 56 | 3 | 7.0 | 8.0 | 0.00 | 0.45 | 0.45 | 99 | 1012.2 |
| 20260507164720 | 56 | 333 | 2.0 | 3.0 | 0.00 | 0.45 | 0.45 | 99 | 1012.5 |
| 20260507164217 | 56 | 14 | 2.0 | 5.0 | 0.00 | 0.45 | 0.45 | 99 | 1011.8 |
| 20260507163714 | 56 | 334 | 2.0 | 7.0 | 0.00 | 0.45 | 0.45 | 99 | 1012.5 |
| 20260507163212 | 56 | 306 | 3.0 | 5.0 | 0.00 | 0.45 | 0.45 | 99 | 1012.2 |
| 20260507162708 | 56 | 357 | 5.0 | 7.0 | 0.07 | 0.45 | 0.45 | 99 | 1012.9 |
| 20260507162204 | 56 | 239 | 0.0 | 5.0 | 0.07 | 0.45 | 0.45 | 99 | 1012.9 |
| 20260507161700 | 56 | 343 | 5.0 | 7.0 | 0.07 | 0.44 | 0.44 | 99 | 1013.2 |
| 20260507161157 | 56 | 338 | 2.0 | 9.0 | 0.07 | 0.44 | 0.44 | 99 | 1013.5 |
| 20260507160653 | 56 | 14 | 4.0 | 9.0 | 0.00 | 0.43 | 0.43 | 99 | 1013.2 |
| 20260507160150 | 56 | 337 | 5.0 | 11.0 | 0.05 | 0.43 | 0.43 | 99 | 1012.9 |
| 20260507155645 | 56 | 355 | 2.0 | 9.0 | 0.12 | 0.43 | 0.43 | 99 | 1012.9 |
| 20260507155142 | 56 | 45 | 3.0 | 10.0 | 0.12 | 0.42 | 0.42 | 99 | 1012.9 |
| 20260507154639 | 56 | 41 | 3.0 | 11.0 | 0.05 | 0.41 | 0.41 | 99 | 1012.9 |
| 20260507154137 | 56 | 349 | 5.0 | 8.0 | 0.07 | 0.40 | 0.40 | 99 | 1012.9 |
| 20260507153633 | 56 | 348 | 5.0 | 11.0 | 0.07 | 0.40 | 0.40 | 99 | 1012.9 |
| 20260507153129 | 56 | 29 | 3.0 | 5.0 | 0.05 | 0.39 | 0.39 | 99 | 1012.5 |
| 20260507152626 | 56 | 13 | 2.0 | 8.0 | 0.05 | 0.39 | 0.39 | 99 | 1012.5 |
| 20260507152121 | 56 | 350 | 4.0 | 6.0 | 0.07 | 0.38 | 0.38 | 99 | 1012.2 |
| 20260507151618 | 56 | 356 | 2.0 | 13.0 | 0.07 | 0.38 | 0.38 | 99 | 1012.9 |
| 20260507151115 | 57 | 357 | 1.0 | 2.0 | 0.05 | 0.37 | 0.37 | 99 | 1012.2 |
| 20260507150612 | 57 | 235 | 0.0 | 0.0 | 0.07 | 0.36 | 0.36 | 99 | 1012.5 |
| 20260507150109 | 57 | 352 | 0.0 | 2.0 | 0.07 | 0.36 | 0.36 | 99 | 1012.5 |
| 20260507145604 | 57 | 10 | 0.0 | 3.0 | 0.05 | 0.35 | 0.35 | 99 | 1012.9 |
| 20260507145102 | 57 | 333 | 0.0 | 1.0 | 0.12 | 0.35 | 0.35 | 99 | 1012.9 |
| 20260507144558 | 57 | 279 | 0.0 | 1.0 | 0.12 | 0.34 | 0.34 | 99 | 1012.5 |
| 20260507144056 | 57 | 347 | 0.0 | 0.0 | 0.12 | 0.33 | 0.33 | 99 | 1012.2 |
| 20260507143552 | 57 | 32 | 3.0 | 5.0 | 0.14 | 0.32 | 0.32 | 99 | 1012.5 |
| 20260507143050 | 57 | 1 | 4.0 | 10.0 | 0.12 | 0.31 | 0.31 | 99 | 1012.5 |
| 20260507142550 | 57 | 354 | 5.0 | 9.0 | 0.12 | 0.30 | 0.30 | 99 | 1012.5 |
| 20260507142047 | 58 | 38 | 0.0 | 9.0 | 0.12 | 0.29 | 0.29 | 99 | 1012.5 |
| 20260507141543 | 58 | 46 | 3.0 | 7.0 | 0.12 | 0.28 | 0.28 | 99 | 1012.2 |
| 20260507141040 | 58 | 36 | 1.0 | 5.0 | 0.07 | 0.27 | 0.27 | 99 | 1012.5 |
| 20260507140537 | 58 | 340 | 5.0 | 14.0 | 0.05 | 0.26 | 0.26 | 99 | 1012.5 |
| 20260507140035 | 58 | 359 | 9.0 | 11.0 | 0.12 | 0.26 | 0.26 | 99 | 1012.9 |
| 20260507135531 | 59 | 359 | 14.0 | 15.0 | 0.07 | 0.25 | 0.25 | 99 | 1012.9 |
| 20260507135029 | 59 | 9 | 10.0 | 13.0 | 0.00 | 0.24 | 0.24 | 99 | 1012.9 |
| 20260507134525 | 60 | 12 | 9.0 | 16.0 | 0.00 | 0.24 | 0.24 | 99 | 1012.2 |
| 20260507134021 | 60 | 34 | 10.0 | 13.0 | 0.00 | 0.24 | 0.24 | 99 | 1012.2 |
| 20260507133517 | 61 | 350 | 9.0 | 10.0 | 0.05 | 0.24 | 0.24 | 99 | 1011.8 |
| 20260507133015 | 62 | 4 | 11.0 | 22.0 | 0.05 | 0.24 | 0.24 | 99 | 1011.5 |
| 20260507132511 | 66 | 358 | 0.0 | 0.0 | 0.00 | 0.23 | 0.23 | 99 | 1011.2 |
| 20260507132008 | 66 | 203 | 0.0 | 0.0 | 0.00 | 0.23 | 0.23 | 99 | 1011.2 |
| 20260507131505 | 66 | 207 | 0.0 | 0.0 | 0.00 | 0.23 | 0.23 | 99 | 1011.5 |
| 20260507131002 | 66 | 207 | 0.0 | 0.0 | 0.07 | 0.23 | 0.23 | 99 | 1011.2 |
| 20260507130459 | 66 | 198 | 0.0 | 0.0 | 0.12 | 0.23 | 0.23 | 99 | 1011.2 |
| 20260507125957 | 66 | 198 | 0.0 | 0.0 | 0.05 | 0.22 | 0.22 | 99 | 1011.5 |
| 20260507125455 | 66 | 209 | 0.0 | 0.0 | 0.00 | 0.21 | 0.21 | 99 | 1011.8 |
| 20260507124952 | 66 | 209 | 0.0 | 0.0 | 0.00 | 0.21 | 0.21 | 99 | 1011.8 |
| 20260507124448 | 66 | 209 | 0.0 | 0.0 | 0.00 | 0.21 | 0.21 | 99 | 1011.8 |
| 20260507123947 | 66 | 209 | 0.0 | 0.0 | 0.00 | 0.21 | 0.21 | 99 | 1011.8 |
| 20260507123444 | 66 | 197 | 0.0 | 0.0 | 0.00 | 0.21 | 0.21 | 99 | 1011.8 |
| 20260507122940 | 66 | 195 | 0.0 | 0.0 | 0.00 | 0.21 | 0.21 | 99 | 1011.8 |
| 20260507122436 | 66 | 208 | 0.0 | 0.0 | 0.00 | 0.21 | 0.21 | 99 | 1011.8 |
| 20260507121932 | 66 | 208 | 0.0 | 0.0 | 0.00 | 0.21 | 0.21 | 99 | 1011.8 |
| 20260507121427 | 66 | 209 | 0.0 | 0.0 | 0.00 | 0.21 | 0.21 | 99 | 1011.8 |
| 20260507120924 | 66 | 209 | 0.0 | 0.0 | 0.00 | 0.21 | 0.21 | 99 | 1011.8 |
| 20260507120420 | 66 | 179 | 0.0 | 0.0 | 0.00 | 0.21 | 0.21 | 99 | 1011.8 |
| 20260507115917 | 66 | 179 | 0.0 | 0.0 | 0.00 | 0.21 | 0.21 | 99 | 1012.2 |
| 20260507115413 | 66 | 205 | 0.0 | 0.0 | 0.00 | 0.21 | 0.21 | 99 | 1012.5 |
| 20260507114909 | 66 | 214 | 0.0 | 0.0 | 0.00 | 0.21 | 0.21 | 99 | 1012.5 |
| 20260507114406 | 66 | 220 | 0.0 | 0.0 | 0.00 | 0.21 | 0.21 | 99 | 1012.5 |
| 20260507113903 | 66 | 208 | 0.0 | 0.0 | 0.00 | 0.21 | 0.21 | 99 | 1012.2 |
| 20260507113400 | 66 | 192 | 0.0 | 0.0 | 0.00 | 0.21 | 0.21 | 99 | 1011.8 |
| 20260507112857 | 65 | 192 | 0.0 | 0.0 | 0.00 | 0.21 | 0.21 | 99 | 1012.2 |
| 20260507112355 | 66 | 196 | 0.0 | 0.0 | 0.00 | 0.21 | 0.21 | 99 | 1012.2 |
| 20260507111852 | 65 | 193 | 0.0 | 0.0 | 0.00 | 0.21 | 0.21 | 99 | 1012.2 |
| 20260507111349 | 66 | 193 | 0.0 | 0.0 | 0.00 | 0.21 | 0.21 | 99 | 1011.8 |
| 20260507110845 | 65 | 186 | 0.0 | 0.0 | 0.00 | 0.21 | 0.21 | 99 | 1012.2 |
| 20260507110341 | 65 | 184 | 0.0 | 0.0 | 0.00 | 0.21 | 0.21 | 99 | 1012.2 |
| 20260507105838 | 65 | 184 | 0.0 | 0.0 | 0.07 | 0.21 | 0.21 | 99 | 1011.8 |
| 20260507105335 | 65 | 182 | 0.0 | 0.0 | 0.07 | 0.21 | 0.21 | 99 | 1012.2 |
| 20260507104832 | 65 | 184 | 0.0 | 0.0 | 0.05 | 0.20 | 0.20 | 99 | 1011.8 |
| 20260507104328 | 66 | 308 | 0.0 | 0.0 | 0.05 | 0.20 | 0.20 | 99 | 1012.2 |
| 20260507103824 | 66 | 246 | 0.0 | 0.0 | 0.00 | 0.19 | 0.19 | 99 | 1012.2 |
| 20260507103321 | 65 | 188 | 0.0 | 0.0 | 0.00 | 0.19 | 0.19 | 99 | 1011.8 |
| 20260507102817 | 65 | 187 | 0.0 | 0.0 | 0.07 | 0.19 | 0.19 | 99 | 1011.8 |
| 20260507102314 | 65 | 188 | 0.0 | 0.0 | 0.07 | 0.19 | 0.19 | 99 | 1011.8 |
| 20260507101810 | 65 | 188 | 0.0 | 0.0 | 0.00 | 0.18 | 0.18 | 99 | 1011.8 |
| 20260507101305 | 66 | 200 | 0.0 | 0.0 | 0.00 | 0.18 | 0.18 | 99 | 1011.8 |
| 20260507100802 | 66 | 168 | 0.0 | 0.0 | 0.00 | 0.18 | 0.18 | 99 | 1011.8 |
| 20260507100300 | 66 | 353 | 0.0 | 1.0 | 0.00 | 0.18 | 0.18 | 99 | 1011.8 |
| 20260507095758 | 66 | 358 | 0.0 | 0.0 | 0.07 | 0.18 | 0.18 | 99 | 1011.5 |
| 20260507095254 | 66 | 247 | 0.0 | 0.0 | 0.07 | 0.18 | 0.18 | 99 | 1011.8 |
| 20260507094751 | 66 | 212 | 1.0 | 2.0 | 0.00 | 0.17 | 0.17 | 99 | 1011.5 |
| 20260507094248 | 66 | 189 | 0.0 | 0.0 | 0.05 | 0.17 | 0.17 | 99 | 1011.2 |
| 20260507093745 | 66 | 150 | 0.0 | 2.0 | 0.00 | 0.16 | 0.16 | 99 | 1011.5 |
| 20260507093244 | 66 | 212 | 3.0 | 3.0 | 0.00 | 0.16 | 0.16 | 99 | 1011.8 |
| 20260507092741 | 66 | 189 | 1.0 | 5.0 | 0.07 | 0.16 | 0.16 | 99 | 1011.8 |
| 20260507092237 | 66 | 200 | 2.0 | 5.0 | 0.05 | 0.15 | 0.15 | 99 | 1011.5 |
| 20260507091734 | 66 | 217 | 0.0 | 2.0 | 0.05 | 0.15 | 0.15 | 99 | 1011.8 |
| 20260507091230 | 66 | 174 | 1.0 | 3.0 | 0.07 | 0.14 | 0.14 | 99 | 1011.8 |
| 20260507090725 | 66 | 184 | 0.0 | 2.0 | 0.12 | 0.14 | 0.14 | 99 | 1011.5 |
| 20260507090222 | 66 | 180 | 6.0 | 7.0 | 0.05 | 0.13 | 0.13 | 99 | 1011.5 |
| 20260507085720 | 66 | 150 | 2.0 | 3.0 | 0.07 | 0.12 | 0.12 | 99 | 1011.8 |
| 20260507085216 | 66 | 190 | 0.0 | 2.0 | 0.07 | 0.12 | 0.12 | 99 | 1011.8 |
| 20260507084713 | 66 | 201 | 0.0 | 0.0 | 0.05 | 0.11 | 0.11 | 98 | 1011.8 |
| 20260507084210 | 66 | 218 | 0.0 | 1.0 | 0.05 | 0.11 | 0.11 | 98 | 1011.8 |
| 20260507083707 | 66 | 191 | 0.0 | 3.0 | 0.00 | 0.10 | 0.10 | 98 | 1011.8 |
| 20260507083204 | 66 | 127 | 6.0 | 8.0 | 0.07 | 0.10 | 0.10 | 98 | 1011.8 |
| 20260507082700 | 66 | 216 | 1.0 | 6.0 | 0.07 | 0.10 | 0.10 | 98 | 1011.5 |
| 20260507082156 | 66 | 170 | 1.0 | 8.0 | 0.00 | 0.09 | 0.09 | 98 | 1011.5 |
| 20260507081653 | 66 | 205 | 0.0 | 5.0 | 0.00 | 0.09 | 0.09 | 98 | 1011.2 |
| 20260507081149 | 66 | 167 | 0.0 | 2.0 | 0.05 | 0.09 | 0.09 | 98 | 1011.5 |
| 20260507080646 | 66 | 141 | 0.0 | 2.0 | 0.05 | 0.09 | 0.09 | 98 | 1011.5 |
| 20260507080142 | 66 | 195 | 0.0 | 6.0 | 0.07 | 0.08 | 0.08 | 97 | 1011.5 |
| 20260507075637 | 66 | 184 | 0.0 | 0.0 | 0.07 | 0.08 | 0.08 | 97 | 1011.8 |
| 20260507075133 | 66 | 177 | 0.0 | 0.0 | 0.00 | 0.07 | 0.07 | 97 | 1011.8 |
| 20260507074630 | 66 | 203 | 5.0 | 6.0 | 0.00 | 0.07 | 0.07 | 97 | 1012.5 |
| 20260507074129 | 66 | 186 | 4.0 | 6.0 | 0.00 | 0.07 | 0.07 | 97 | 1012.2 |
| 20260507073625 | 66 | 221 | 0.0 | 1.0 | 0.00 | 0.07 | 0.07 | 97 | 1012.2 |
| 20260507073121 | 66 | 185 | 0.0 | 7.0 | 0.00 | 0.07 | 0.07 | 98 | 1012.2 |
| 20260507072619 | 66 | 189 | 1.0 | 2.0 | 0.00 | 0.07 | 0.07 | 98 | 1012.2 |
| 20260507072116 | 66 | 194 | 0.0 | 5.0 | 0.07 | 0.07 | 0.07 | 98 | 1012.2 |
| 20260507071613 | 66 | 172 | 0.0 | 1.0 | 0.07 | 0.07 | 0.07 | 98 | 1012.2 |
| 20260507071109 | 66 | 200 | 2.0 | 5.0 | 0.00 | 0.06 | 0.06 | 98 | 1012.5 |
| 20260507070607 | 66 | 186 | 1.0 | 2.0 | 0.00 | 0.06 | 0.06 | 98 | 1012.5 |
| 20260507070104 | 66 | 160 | 0.0 | 0.0 | 0.00 | 0.06 | 0.06 | 98 | 1012.9 |
| 20260507065600 | 67 | 190 | 0.0 | 0.0 | 0.00 | 0.06 | 0.06 | 98 | 1012.9 |
| 20260507065057 | 67 | 176 | 0.0 | 0.0 | 0.00 | 0.06 | 0.06 | 98 | 1012.5 |
| 20260507064555 | 67 | 257 | 0.0 | 0.0 | 0.00 | 0.06 | 0.06 | 98 | 1012.9 |
| 20260507064053 | 67 | 199 | 0.0 | 0.0 | 0.00 | 0.06 | 0.06 | 97 | 1012.9 |
| 20260507063550 | 67 | 164 | 1.0 | 2.0 | 0.00 | 0.06 | 0.06 | 97 | 1012.5 |
| 20260507063048 | 67 | 163 | 0.0 | 0.0 | 0.00 | 0.06 | 0.06 | 97 | 1012.2 |
| 20260507062544 | 67 | 193 | 0.0 | 0.0 | 0.00 | 0.06 | 0.06 | 97 | 1012.9 |
| 20260507062041 | 67 | 190 | 1.0 | 1.0 | 0.00 | 0.06 | 0.06 | 96 | 1012.9 |
| 20260507061539 | 67 | 201 | 0.0 | 1.0 | 0.00 | 0.06 | 0.06 | 96 | 1012.9 |
| 20260507061037 | 67 | 201 | 2.0 | 3.0 | 0.00 | 0.06 | 0.06 | 96 | 1012.9 |
| 20260507060535 | 67 | 148 | 1.0 | 2.0 | 0.00 | 0.06 | 0.06 | 96 | 1012.9 |
| 20260507060031 | 67 | 200 | 1.0 | 5.0 | 0.00 | 0.06 | 0.06 | 96 | 1012.9 |
| 20260507055531 | 67 | 206 | 1.0 | 2.0 | 0.00 | 0.06 | 0.06 | 96 | 1012.9 |
| 20260507055028 | 67 | 183 | 2.0 | 5.0 | 0.00 | 0.06 | 0.06 | 96 | 1012.5 |
| 20260507054524 | 67 | 170 | 5.0 | 6.0 | 0.00 | 0.06 | 0.06 | 96 | 1012.2 |
| 20260507054021 | 67 | 187 | 3.0 | 8.0 | 0.00 | 0.06 | 0.06 | 96 | 1012.5 |
| 20260507053519 | 67 | 202 | 2.0 | 5.0 | 0.00 | 0.06 | 0.06 | 96 | 1012.5 |
| 20260507053018 | 67 | 193 | 0.0 | 3.0 | 0.00 | 0.06 | 0.06 | 96 | 1012.9 |
| 20260507052515 | 68 | 203 | 4.0 | 6.0 | 0.00 | 0.06 | 0.06 | 96 | 1012.5 |
| 20260507052011 | 68 | 174 | 0.0 | 7.0 | 0.00 | 0.06 | 0.06 | 96 | 1012.9 |
| 20260507051509 | 68 | 164 | 3.0 | 6.0 | 0.00 | 0.06 | 0.06 | 96 | 1012.5 |
| 20260507051006 | 68 | 182 | 0.0 | 3.0 | 0.00 | 0.06 | 0.06 | 96 | 1012.9 |
| 20260507050502 | 68 | 207 | 0.0 | 2.0 | 0.12 | 0.06 | 0.06 | 96 | 1012.9 |
| 20260507045959 | 68 | 186 | 0.0 | 0.0 | 0.17 | 0.06 | 0.06 | 95 | 1012.9 |
| 20260507045455 | 68 | 162 | 0.0 | 2.0 | 0.05 | 0.04 | 0.04 | 95 | 1012.9 |
| 20260507044953 | 68 | 193 | 0.0 | 2.0 | 0.00 | 0.03 | 0.03 | 95 | 1014.2 |
| 20260507044449 | 68 | 142 | 0.0 | 5.0 | 0.07 | 0.03 | 0.03 | 95 | 1013.9 |
| 20260507043946 | 68 | 130 | 0.0 | 6.0 | 0.00 | 0.02 | 0.02 | 96 | 1014.2 |
| 20260507043442 | 68 | 152 | 0.0 | 3.0 | 0.05 | 0.02 | 0.02 | 96 | 1013.9 |
| 20260507042938 | 68 | 157 | 0.0 | 0.0 | 0.05 | 0.02 | 0.02 | 95 | 1014.2 |
| 20260507042435 | 68 | 178 | 0.0 | 0.0 | 0.07 | 0.01 | 0.01 | 95 | 1013.9 |
| 20260507041931 | 68 | 193 | 0.0 | 0.0 | 0.07 | 0.01 | 0.01 | 94 | 1014.2 |
| 20260507041428 | 68 | 184 | 0.0 | 0.0 | 0.00 | 0.00 | 0.00 | 94 | 1013.9 |
| 20260507040925 | 68 | 169 | 0.0 | 2.0 | 0.00 | 0.00 | 0.00 | 94 | 1013.5 |
| 20260507040421 | 68 | 193 | 0.0 | 2.0 | 0.00 | 0.00 | 0.00 | 94 | 1013.5 |
| 20260507035917 | 68 | 174 | 0.0 | 0.0 | 0.00 | 0.03 | 0.03 | 94 | 1013.5 |
| 20260507035413 | 68 | 135 | 0.0 | 0.0 | 0.00 | 0.03 | 0.03 | 94 | 1013.5 |
| 20260507034910 | 68 | 192 | 0.0 | 6.0 | 0.00 | 0.03 | 0.03 | 93 | 1013.2 |
| 20260507034407 | 68 | 200 | 0.0 | 0.0 | 0.00 | 0.03 | 0.03 | 94 | 1013.5 |
| 20260507033905 | 68 | 180 | 0.0 | 1.0 | 0.05 | 0.03 | 0.03 | 94 | 1012.9 |
| 20260507033403 | 68 | 159 | 0.0 | 0.0 | 0.00 | 0.02 | 0.02 | 94 | 1013.2 |
| 20260507032900 | 68 | 185 | 0.0 | 3.0 | 0.00 | 0.02 | 0.02 | 93 | 1013.2 |
| 20260507032356 | 68 | 166 | 0.0 | 0.0 | 0.00 | 0.02 | 0.02 | 93 | 1013.2 |
| 20260507031853 | 68 | 153 | 0.0 | 0.0 | 0.07 | 0.02 | 0.02 | 92 | 1013.5 |
| 20260507031349 | 68 | 175 | 0.0 | 0.0 | 0.07 | 0.02 | 0.02 | 91 | 1013.5 |
| 20260507030846 | 69 | 183 | 0.0 | 0.0 | 0.00 | 0.01 | 0.01 | 90 | 1013.2 |
| 20260507030344 | 69 | 169 | 0.0 | 0.0 | 0.00 | 0.01 | 0.01 | 89 | 1013.2 |
| 20260507025840 | 69 | 171 | 0.0 | 0.0 | 0.00 | 0.01 | 0.01 | 89 | 1012.9 |
| 20260507025338 | 68 | 190 | 0.0 | 0.0 | 0.00 | 0.01 | 0.01 | 90 | 1013.2 |
| 20260507024835 | 69 | 190 | 0.0 | 0.0 | 0.00 | 0.01 | 0.01 | 89 | 1013.2 |
| 20260507024332 | 69 | 190 | 0.0 | 0.0 | 0.00 | 0.01 | 0.01 | 89 | 1013.2 |
| 20260507023828 | 69 | 177 | 0.0 | 0.0 | 0.00 | 0.01 | 0.01 | 89 | 1012.9 |
| 20260507023325 | 69 | 179 | 0.0 | 0.0 | 0.00 | 0.01 | 0.01 | 89 | 1012.9 |
| 20260507022822 | 69 | 222 | 0.0 | 0.0 | 0.00 | 0.01 | 0.01 | 88 | 1012.9 |
| 20260507022319 | 69 | 217 | 0.0 | 0.0 | 0.00 | 0.01 | 0.01 | 86 | 1012.9 |
| 20260507021815 | 70 | 198 | 0.0 | 0.0 | 0.00 | 0.01 | 0.01 | 85 | 1012.2 |
| 20260507021311 | 70 | 188 | 0.0 | 0.0 | 0.00 | 0.01 | 0.01 | 84 | 1012.9 |
| 20260507020809 | 70 | 178 | 0.0 | 0.0 | 0.00 | 0.01 | 0.01 | 84 | 1012.9 |
| 20260507020305 | 70 | 167 | 0.0 | 0.0 | 0.00 | 0.01 | 0.01 | 84 | 1013.2 |
| 20260507015803 | 70 | 185 | 0.0 | 0.0 | 0.00 | 0.01 | 0.01 | 84 | 1013.5 |
| 20260507015300 | 69 | 211 | 0.0 | 0.0 | 0.00 | 0.01 | 0.01 | 86 | 1013.5 |
| 20260507014757 | 69 | 213 | 0.0 | 0.0 | 0.00 | 0.01 | 0.01 | 87 | 1013.5 |
| 20260507014253 | 69 | 214 | 0.0 | 0.0 | 0.00 | 0.01 | 0.01 | 87 | 1013.5 |
| 20260507013749 | 69 | 213 | 0.0 | 0.0 | 0.00 | 0.01 | 0.01 | 87 | 1013.5 |
| 20260507013247 | 70 | 214 | 0.0 | 0.0 | 0.00 | 0.01 | 0.01 | 87 | 1013.5 |
| 20260507012744 | 70 | 192 | 0.0 | 0.0 | 0.00 | 0.01 | 0.01 | 85 | 1013.5 |
| 20260507012244 | 71 | 193 | 0.0 | 0.0 | 0.00 | 0.01 | 0.01 | 84 | 1013.2 |
| 20260507011743 | 71 | 166 | 0.0 | 0.0 | 0.00 | 0.01 | 0.01 | 84 | 1012.9 |
| 20260507011239 | 70 | 169 | 0.0 | 0.0 | 0.00 | 0.01 | 0.01 | 86 | 1012.9 |
| 20260507010738 | 70 | 205 | 0.0 | 0.0 | 0.00 | 0.01 | 0.01 | 86 | 1013.2 |
| 20260507010235 | 71 | 207 | 0.0 | 0.0 | 0.00 | 0.01 | 0.01 | 83 | 1012.9 |
| 20260507005732 | 71 | 168 | 0.0 | 0.0 | 0.00 | 0.01 | 0.01 | 82 | 1012.9 |
| 20260507005229 | 71 | 177 | 0.0 | 0.0 | 0.00 | 0.01 | 0.01 | 82 | 1013.2 |
| 20260507004725 | 71 | 187 | 0.0 | 0.0 | 0.00 | 0.01 | 0.01 | 83 | 1013.2 |
| 20260507004223 | 71 | 187 | 0.0 | 0.0 | 0.00 | 0.01 | 0.01 | 83 | 1013.2 |
| 20260507003719 | 71 | 217 | 0.0 | 0.0 | 0.00 | 0.01 | 0.01 | 82 | 1012.9 |
| 20260507003214 | 72 | 173 | 0.0 | 0.0 | 0.00 | 0.01 | 0.01 | 81 | 1012.9 |
| 20260507002711 | 72 | 199 | 0.0 | 0.0 | 0.00 | 0.01 | 0.01 | 81 | 1012.9 |
| 20260507002207 | 72 | 161 | 0.0 | 0.0 | 0.00 | 0.01 | 0.01 | 81 | 1012.9 |
| 20260507001703 | 72 | 183 | 0.0 | 0.0 | 0.00 | 0.01 | 0.01 | 81 | 1012.9 |
| 20260507001201 | 72 | 190 | 0.0 | 1.0 | 0.00 | 0.01 | 0.01 | 81 | 1012.9 |
| 20260507000657 | 72 | 187 | 0.0 | 0.0 | 0.00 | 0.01 | 0.01 | 81 | 1013.2 |
| 20260507000153 | 72 | 197 | 1.0 | 6.0 | 0.00 | 0.01 | 0.01 | 80 | 1013.5 |
| 20260506235650 | 73 | 183 | 0.0 | 1.0 | 0.00 | 0.01 | 0.01 | 80 | 1013.5 |
| 20260506235145 | 73 | 213 | 2.0 | 3.0 | 0.00 | 0.01 | 0.01 | 80 | 1013.2 |
| 20260506234643 | 73 | 170 | 0.0 | 0.0 | 0.00 | 0.01 | 0.01 | 80 | 1013.5 |
| 20260506234139 | 73 | 199 | 0.0 | 3.0 | 0.00 | 0.01 | 0.01 | 79 | 1013.5 |
| 20260506233637 | 73 | 205 | 0.0 | 0.0 | 0.00 | 0.01 | 0.01 | 79 | 1013.2 |
| 20260506233134 | 73 | 232 | 0.0 | 3.0 | 0.00 | 0.01 | 0.01 | 79 | 1013.2 |
| 20260506232630 | 73 | 212 | 0.0 | 2.0 | 0.00 | 0.01 | 0.01 | 78 | 1013.2 |
| 20260506232125 | 73 | 175 | 4.0 | 6.0 | 0.00 | 0.01 | 0.01 | 78 | 1013.2 |
| 20260506231623 | 73 | 203 | 4.0 | 6.0 | 0.00 | 0.01 | 0.01 | 78 | 1012.9 |
| 20260506231121 | 73 | 209 | 5.0 | 7.0 | 0.00 | 0.01 | 0.01 | 78 | 1012.9 |
| 20260506230617 | 73 | 203 | 6.0 | 7.0 | 0.00 | 0.01 | 0.01 | 78 | 1012.9 |
| 20260506230115 | 73 | 204 | 4.0 | 8.0 | 0.00 | 0.01 | 0.01 | 77 | 1012.5 |
| 20260506225611 | 74 | 213 | 5.0 | 7.0 | 0.00 | 0.01 | 0.01 | 78 | 1012.9 |
| 20260506225107 | 74 | 172 | 6.0 | 8.0 | 0.00 | 0.01 | 0.01 | 77 | 1012.9 |
| 20260506224604 | 74 | 197 | 6.0 | 11.0 | 0.00 | 0.01 | 0.01 | 77 | 1012.5 |
| 20260506224101 | 74 | 201 | 6.0 | 8.0 | 0.00 | 0.01 | 0.01 | 77 | 1012.5 |
| 20260506223557 | 74 | 196 | 9.0 | 11.0 | 0.00 | 0.01 | 0.01 | 76 | 1012.9 |
| 20260506223053 | 74 | 205 | 6.0 | 11.0 | 0.00 | 0.01 | 0.01 | 77 | 1012.5 |
| 20260506222550 | 74 | 225 | 7.0 | 13.0 | 0.00 | 0.01 | 0.01 | 76 | 1012.9 |
| 20260506222046 | 74 | 188 | 5.0 | 15.0 | 0.00 | 0.01 | 0.01 | 76 | 1012.9 |
| 20260506221544 | 74 | 213 | 5.0 | 13.0 | 0.00 | 0.01 | 0.01 | 76 | 1012.5 |
| 20260506221042 | 74 | 179 | 3.0 | 14.0 | 0.00 | 0.01 | 0.01 | 76 | 1012.9 |
| 20260506220538 | 74 | 179 | 6.0 | 18.0 | 0.00 | 0.01 | 0.01 | 76 | 1012.5 |
| 20260506220033 | 74 | 216 | 6.0 | 13.0 | 0.00 | 0.01 | 0.01 | 77 | 1012.5 |
| 20260506215531 | 74 | 196 | 6.0 | 15.0 | 0.00 | 0.01 | 0.01 | 76 | 1012.5 |
| 20260506215026 | 74 | 197 | 12.0 | 14.0 | 0.00 | 0.01 | 0.01 | 76 | 1012.5 |
| 20260506214523 | 74 | 198 | 9.0 | 14.0 | 0.00 | 0.01 | 0.01 | 77 | 1012.5 |